DW8219 Weather Reports


Display with metric or nautical units.
time (UTC)temp
F
wind
direction
speed
MPH
gust
MPH
rain 1hr
in
rain 24hr
in
rain mn
in
humidity
%
barometer
mb
20260503195904 59 281 7.0 18.0 0.00 0.00 0.00 29 1008.8
20260503194903 58 294 7.0 21.0 0.00 0.00 0.00 32 1008.9
20260503194404 58 285 8.0 17.0 0.00 0.00 0.00 32 1008.8
20260503193904 57 297 12.0 21.0 0.00 0.00 0.00 33 1008.9
20260503192404 58 317 9.0 20.0 0.00 0.00 0.00 34 1009.2
20260503191904 57 290 9.0 18.0 0.00 0.00 0.00 33 1009.1
20260503191404 57 270 10.0 21.0 0.00 0.00 0.00 31 1009.1
20260503190904 58 290 5.0 16.0 0.00 0.00 0.00 38 1009.2
20260503190404 57 304 9.0 20.0 0.00 0.00 0.00 35 1009.2
20260503185404 60 272 6.0 20.0 0.00 0.00 0.00 35 1009.1
20260503184905 57 321 5.0 17.0 0.00 0.00 0.00 37 1009.3
20260503184404 57 301 9.0 20.0 0.00 0.00 0.00 34 1009.2
20260503183904 57 338 8.0 20.0 0.00 0.00 0.00 37 1009.3
20260503182904 58 279 10.0 20.0 0.00 0.00 0.00 35 1009.3
20260503182405 57 279 6.0 25.0 0.00 0.00 0.00 38 1009.3
20260503181904 57 308 7.0 16.0 0.00 0.00 0.00 36 1009.4
20260503181405 57 306 9.0 18.0 0.00 0.00 0.00 41 1009.5
20260503180904 55 306 7.0 14.0 0.00 0.00 0.00 40 1009.5
20260503180404 56 315 6.0 16.0 0.00 0.00 0.00 37 1009.7
20260503174405 55 276 6.0 17.0 0.00 0.00 0.00 41 1009.9
20260503173904 54 319 9.0 20.0 0.00 0.00 0.00 42 1009.8
20260503173404 53 276 7.0 14.0 0.00 0.00 0.00 39 1009.9
20260503172904 53 320 8.0 20.0 0.00 0.00 0.00 38 1009.9
20260503172405 55 279 10.0 23.0 0.00 0.00 0.00 39 1009.9
20260503171904 53 267 8.0 20.0 0.00 0.00 0.00 40 1009.9
20260503171404 53 315 7.0 18.0 0.00 0.00 0.00 39 1009.9
20260503170905 52 313 9.0 16.0 0.00 0.00 0.00 39 1009.9
20260503170405 52 325 7.0 20.0 0.00 0.00 0.00 40 1010.0
20260503150904 49 294 9.0 20.0 0.00 0.00 0.00 39 1010.3
20260503150405 50 287 9.0 22.0 0.00 0.00 0.00 39 1010.3
20260503131404 48 316 6.0 14.0 0.00 0.00 0.00 54 1010.4
20260503130904 47 294 8.0 16.0 0.00 0.00 0.00 53 1010.4
20260503130404 47 305 10.0 17.0 0.00 0.00 0.00 54 1010.4
20260503110404 43 297 2.0 9.0 0.00 0.00 0.00 58 1009.7
20260503090405 44 324 2.0 8.0 0.00 0.01 0.00 53 1008.8
20260503081404 44 321 1.0 6.0 0.00 0.01 0.00 58 1008.9
20260503080904 45 311 1.0 3.0 0.00 0.01 0.00 57 1008.9
20260503080405 45 23 0.0 1.0 0.00 0.01 0.00 57 1008.9
20260503072904 45 355 0.0 0.0 0.00 0.01 0.00 54 1008.9
20260503072404 45 24 1.0 3.0 0.00 0.01 0.00 54 1008.8
20260503071404 45 338 1.0 5.0 0.00 0.01 0.00 54 1008.8
20260503070405 46 328 0.0 3.0 0.00 0.01 0.00 53 1008.9
20260503054904 48 308 0.0 0.0 0.00 0.01 0.00 45 1009.1
20260503054405 48 304 0.0 3.0 0.00 0.01 0.00 45 1009.0
20260503053904 48 5 0.0 6.0 0.00 0.01 0.00 45 1009.1
20260503053405 49 337 0.0 0.0 0.00 0.01 0.00 45 1009.2
20260503052905 49 331 0.0 0.0 0.00 0.01 0.00 44 1009.4
20260503052404 49 310 0.0 0.0 0.00 0.01 0.00 45 1009.5
20260503051904 49 310 0.0 6.0 0.00 0.01 0.00 44 1009.5
20260503050904 49 340 0.0 5.0 0.00 0.01 0.00 44 1009.5
20260503050404 49 321 0.0 8.0 0.00 0.01 0.00 43 1009.6
20260503045905 49 2 2.0 8.0 0.00 0.01 0.00 43 1009.6
20260503045404 49 314 0.0 9.0 0.00 0.01 0.00 44 1009.5
20260503044904 49 314 1.0 8.0 0.00 0.01 0.00 42 1009.6
20260503044404 49 331 0.0 8.0 0.00 0.01 0.00 43 1009.6
20260503043904 50 14 4.0 12.0 0.00 0.01 0.00 43 1009.6
20260503043405 50 314 0.0 1.0 0.00 0.01 0.00 43 1009.6
20260503042904 50 14 3.0 10.0 0.00 0.01 0.00 42 1009.7
20260503042405 50 333 2.0 7.0 0.00 0.01 0.00 42 1009.7
20260503041905 50 8 0.0 3.0 0.00 0.01 0.00 42 1009.8
20260503041404 50 0 1.0 8.0 0.00 0.01 0.00 42 1009.7
20260503040905 50 333 3.0 9.0 0.00 0.01 0.00 42 1009.7
20260503040405 50 338 2.0 12.0 0.00 0.01 0.00 42 1009.7
20260503035905 50 341 1.0 8.0 0.00 0.01 0.01 41 1009.7
20260503035405 51 313 1.0 12.0 0.00 0.01 0.01 42 1009.6
20260503034904 51 277 1.0 6.0 0.00 0.01 0.01 42 1009.6
20260503034404 50 327 2.0 9.0 0.00 0.01 0.01 42 1009.5
20260503033905 51 1 1.0 3.0 0.00 0.01 0.01 44 1009.5
20260503033405 51 317 0.0 8.0 0.00 0.01 0.01 43 1009.5
20260503032405 51 312 1.0 6.0 0.00 0.01 0.01 44 1009.6
20260503031904 51 313 1.0 9.0 0.00 0.01 0.01 43 1009.6
20260503031405 51 312 0.0 5.0 0.00 0.01 0.01 43 1009.5
20260503030904 51 304 0.0 3.0 0.00 0.01 0.01 42 1009.5
20260503030405 51 330 1.0 6.0 0.00 0.01 0.01 43 1009.6
20260503025904 51 314 0.0 7.0 0.00 0.01 0.01 42 1009.6
20260503025406 51 323 0.0 3.0 0.00 0.01 0.01 43 1009.6
20260503024405 51 331 1.0 7.0 0.00 0.01 0.01 42 1009.5
20260503023403 52 332 0.0 7.0 0.00 0.01 0.01 42 1009.5
20260503022904 52 318 0.0 6.0 0.00 0.01 0.01 41 1009.5
20260503022403 52 317 0.0 1.0 0.00 0.01 0.01 41 1009.5
20260503021904 52 5 0.0 1.0 0.00 0.01 0.01 41 1009.6
20260503021404 52 322 0.0 0.0 0.00 0.01 0.01 40 1009.7
20260503020904 52 321 0.0 0.0 0.00 0.01 0.01 40 1009.6
20260503015903 52 309 0.0 0.0 0.00 0.01 0.01 40 1009.8
20260503015404 52 355 0.0 0.0 0.00 0.01 0.01 39 1009.8
20260503014904 53 355 0.0 1.0 0.00 0.01 0.01 40 1009.7
20260503013905 53 348 0.0 1.0 0.00 0.01 0.01 40 1009.7
20260503013404 53 322 3.0 12.0 0.00 0.01 0.01 40 1009.7
20260503012905 53 320 1.0 12.0 0.00 0.01 0.01 39 1009.5
20260503012405 53 37 2.0 9.0 0.00 0.01 0.01 40 1009.5
20260503011904 53 325 2.0 10.0 0.00 0.01 0.01 40 1009.5
20260503011404 53 322 3.0 13.0 0.00 0.01 0.01 40 1009.5
20260503010904 53 356 5.0 12.0 0.00 0.01 0.01 40 1009.4
20260503005904 53 319 5.0 10.0 0.00 0.01 0.01 40 1009.2
20260503005404 53 321 1.0 12.0 0.00 0.01 0.01 39 1009.2
20260503004904 53 317 1.0 7.0 0.00 0.01 0.01 39 1009.1
20260503004404 54 327 2.0 7.0 0.00 0.01 0.01 39 1009.1
20260503003904 54 305 1.0 10.0 0.00 0.01 0.01 39 1009.1
20260503002404 54 313 5.0 10.0 0.00 0.01 0.01 39 1009.1
20260503001905 54 301 1.0 7.0 0.00 0.01 0.01 39 1009.0
20260503000904 54 313 3.0 12.0 0.00 0.01 0.01 38 1008.9
20260503000404 55 304 2.0 10.0 0.00 0.01 0.01 36 1009.0
20260502235904 55 297 6.0 12.0 0.00 0.01 0.01 36 1009.0
20260502235404 55 317 1.0 12.0 0.00 0.01 0.01 37 1009.0
20260502234905 55 292 3.0 12.0 0.00 0.01 0.01 37 1009.0
20260502234404 55 311 6.0 12.0 0.00 0.01 0.01 38 1008.9
20260502233904 55 314 2.0 13.0 0.00 0.01 0.01 38 1008.8
20260502233404 55 315 7.0 14.0 0.00 0.01 0.01 37 1008.7
20260502232904 56 316 4.0 14.0 0.00 0.01 0.01 37 1008.7
20260502232404 56 312 4.0 10.0 0.00 0.01 0.01 37 1008.7
20260502231904 56 306 3.0 10.0 0.00 0.01 0.01 36 1008.7
20260502231405 57 302 4.0 12.0 0.00 0.01 0.01 36 1008.7
20260502230905 57 313 3.0 12.0 0.00 0.01 0.01 36 1008.7
20260502230404 57 306 2.0 10.0 0.00 0.01 0.01 36 1008.6
20260502225905 57 306 2.0 10.0 0.00 0.01 0.01 37 1008.5
20260502225406 57 308 3.0 10.0 0.00 0.01 0.01 36 1008.3
20260502224404 58 307 1.0 12.0 0.00 0.01 0.01 36 1008.3
20260502223904 59 320 1.0 12.0 0.00 0.01 0.01 35 1008.3
20260502223405 59 311 3.0 10.0 0.00 0.01 0.01 35 1008.3
20260502222904 59 287 1.0 10.0 0.00 0.01 0.01 36 1008.3
20260502222405 58 324 6.0 12.0 0.00 0.01 0.01 37 1008.3
20260502221405 59 316 0.0 8.0 0.00 0.01 0.01 34 1008.4
20260502220905 60 341 4.0 10.0 0.00 0.01 0.01 35 1008.3
20260502220405 60 285 5.0 13.0 0.00 0.01 0.01 34 1008.3
20260502215905 60 263 4.0 14.0 0.00 0.01 0.01 35 1008.2
20260502214905 60 279 1.0 13.0 0.00 0.01 0.01 35 1008.3
20260502214405 60 327 3.0 8.0 0.00 0.01 0.01 35 1008.2
20260502213404 60 332 3.0 10.0 0.00 0.01 0.01 37 1008.1
20260502212904 60 251 1.0 6.0 0.00 0.01 0.01 37 1008.1
20260502212405 60 320 1.0 6.0 0.00 0.01 0.01 37 1008.0
20260502211906 61 342 2.0 12.0 0.00 0.01 0.01 38 1007.9
20260502211404 60 292 1.0 12.0 0.00 0.01 0.01 36 1007.9
20260502210904 59 2 0.0 12.0 0.00 0.01 0.01 36 1008.0
20260502210405 59 316 2.0 12.0 0.00 0.01 0.01 37 1008.0
20260502205905 60 308 4.0 12.0 0.00 0.01 0.01 37 1008.0
20260502205405 60 324 2.0 9.0 0.00 0.01 0.01 38 1007.9
20260502204904 60 268 1.0 6.0 0.00 0.01 0.01 37 1007.9
20260502204405 61 323 3.0 10.0 0.00 0.01 0.01 40 1007.9
20260502203905 60 308 0.0 3.0 0.00 0.01 0.01 36 1007.9
20260502203403 60 267 1.0 6.0 0.00 0.01 0.01 38 1008.1
20260502202904 59 9 2.0 8.0 0.00 0.01 0.01 39 1008.0
20260502202404 59 346 2.0 9.0 0.00 0.01 0.01 37 1008.2
20260502201904 60 262 2.0 9.0 0.00 0.01 0.01 36 1008.2
20260502201404 62 325 3.0 12.0 0.00 0.01 0.01 38 1008.3
20260502200904 62 314 1.0 10.0 0.00 0.01 0.01 40 1008.4
20260502200404 61 258 3.0 9.0 0.00 0.01 0.01 37 1008.4